Preview of NWS' New Version of Forecast
This preview is not operational and should not be used for support decisions.

Regional Weather Roundup (RWR)

Issued by National Weather Service (NWS)

                            
000
ASUS46 KSEW 200910
RWRWA 

WASHINGTON REGIONAL WEATHER ROUNDUP
NATIONAL WEATHER SERVICE SEATTLE WA
100 AM PST WED FEB 20 2019

NOTE:"FAIR" INDICATES FEW OR NO CLOUDS BELOW 12,000 FEET WITH NO 
SIGNIFICANT WEATHER AND/OR OBSTRUCTIONS TO VISIBILITY.

WAZ507-509-555>559-201000-
SEATTLE, TACOMA, EVERETT, AND VICINITY
  
CITY           SKY/WX    TMP DP  RH WIND       PRES   REMARKS
EVERETT        LGT RAIN  37  36  96 NW3       29.83S                  
BOEING FIELD   LGT RAIN  38  35  89 CALM      29.85R                  
RENTON         LGT RAIN  38  36  92 N3        29.85R FOG              
SEATAC AIRPORT LGT RAIN  37  35  92 N6        29.84R                  
JBLM-MCCHORD   CLOUDY    38  38 100 SW5       29.84S                  
PUYALLUP       CLOUDY    39  39 100 SW5       29.83F                  
BREMERTON      CLOUDY    34  34 100 NE3       29.84S                  
JBLM-FT LEWIS  CLOUDY    39  39 100 S3        29.83F                  
TACOMA NARROWS CLOUDY    38  35  89 SW3       29.83F                  
$$
 
WAZ001-503-506-510-514-515-201000-
NORTH INTERIOR
  
CITY           SKY/WX    TMP DP  RH WIND       PRES   REMARKS
BELLINGHAM     LGT SNOW  33  32  96 CALM      29.85S FOG              
FRIDAY HARBOR  MOCLDY    37  33  85 CALM      29.86S                  
EASTSOUND      CLOUDY    39  36  87 NW9       29.84F                  
PORT ANGELES   LGT RAIN  38  36  92 CALM      29.86R                  
EDIZ HOOK      DRIZZLE   39  37  90 CALM      29.87R                  
PORT TOWNSEND  CLOUDY    39  37  93 CALM      29.85S                  
NAS WHIDBEY    MOCLDY    41  33  73 N8        29.89S                  
ARLINGTON      LGT RAIN  34  34 100 CALM      29.86R                  
BURLINGTON     CLOUDY    36  36 100 CALM      29.86S                  
$$
 
WAZ020-022-039-040-504-511-512-201000-
SOUTHWEST INTERIOR
  
CITY           SKY/WX    TMP DP  RH WIND       PRES   REMARKS
SHELTON        CLOUDY    36  33  89 SW5       29.82S                  
OLYMPIA        CLOUDY    34  32  92 CALM      29.85S                  
CHEHALIS       CLOUDY    39  37  93 SW5       29.86S                  
KELSO          LGT RAIN  39  37  92 CALM      29.90S                  
VANCOUVER      CLOUDY    38  37  97 CALM      29.90F                  
SCAPPOOSE, OR  CLOUDY    39  36  89 CALM      29.90F                  
PORTLAND, OR   LGT RAIN  39  39 100 CALM      29.91F                  
$$
 
WAZ021-516-517-201000-
WASHINGTON COAST
  
CITY           SKY/WX    TMP DP  RH WIND       PRES   REMARKS
FORKS          CLOUDY    38  30  73 N3        29.86S                  
HOQUIAM        CLOUDY    41  37  86 W6        29.87S                  
ASTORIA, OR    CLOUDY    41  38  89 NW8       29.90F                  
$$
 
WAZ019-023-024-040-567>569-201000-
CASCADE MOUNTAINS AND COLUMBIA GORGE
  
CITY           SKY/WX    TMP DP  RH WIND       PRES   REMARKS
STAMPEDE PASS  LGT SNOW  27  24  89 VRB5      29.66S VSB 3/4          
TROUTDALE, OR  CLOUDY    40  37  89 CALM      29.90F                  
HOOD RIVER, OR MOSUNNY   34  32  93 CALM      29.81F                  
THE DALLES, OR CLEAR     36  32  85 S7        29.81F                  
$$

WAZ026-027-041>044-520-521-201000-
EAST SLOPES
  
CITY           SKY/WX    TMP DP  RH WIND       PRES   REMARKS
OMAK           CLOUDY    23  17  78 N9        29.83F                  
WENATCHEE      NOT AVBL                                               
ELLENSBURG     PTCLDY    23  19  85 E6        29.73S                  
YAKIMA         PTCLDY    17  14  88 SW5       29.78S FOG              
SUNNYSIDE ARPT PTSUNNY   22  21  97 CALM      29.80  FOG              
YAKIMA TC      PTSUNNY   20  18  93 CALM      29.75S FOG              
$$

WAZ028-034-035-201000-
COLUMBIA BASIN
  
CITY           SKY/WX    TMP DP  RH WIND       PRES   REMARKS
EPHRATA        CLOUDY    23  19  85 NW13      29.78F WCI  11          
MOSES LAKE     CLOUDY    26  20  77 NW8       29.79F                  
PASCO          LGT SNOW  25  23  92 NW9       29.83F FOG              
RICHLAND ARPT  LGT SNOW  27  23  87 W7        29.84                   
HERMISTON, OR  LGT RAIN  36  32  85 SW8       29.77F                  
$$

WAZ036>038-201000-
NORTHEAST WASHINGTON
  
CITY           SKY/WX    TMP DP  RH WIND       PRES   REMARKS
SPOKANE GEIGER LGT SNOW  22  19  89 NE6       29.73F VSB 1            
SPOKANE FELTS  LGT SNOW  25  21  85 CALM      29.76F FOG              
FAIRCHILD AFB  LGT SNOW  21  21 100 NE6       29.72S FOG              
COEURDALENE,ID FLURRIES  21  19  92 NE8       29.74F                  
DEER PARK      CLOUDY    21  18  88 N3        29.76F                  
$$

WAZ029>033-201000-
SOUTHEAST WASHINGTON
  
CITY           SKY/WX    TMP DP  RH WIND       PRES   REMARKS
PULLMAN        LGT SNOW  25  22  88 E9        29.73F FOG              
LEWISTON, ID   LGT SNOW  27  23  85 CALM      29.78F FOG              
WALLA WALLA    LGT RAIN  36  32  85 S12       29.76F                  
PENDLETON, OR  LGT RAIN  34  31  88 W14       29.74F WCI  25          
$$